Zurück zum Katalog

GORIZONT 5

AktivKommunikationGEO
NORAD 13092·PAYLOAD·🇷🇺 Russia

Gestartet Mar 15, 1982 von Baikonur Cosmodrome

Loading…

TLE

AktuellSource: Space-Track

Epoche: Sep 14, 2026, 03:49 UTC

1 13092U 82020A   26257.15920380  .00000015  00000-0  00000-0 0  9993
2 13092   8.1519 300.4592 0033834 261.3907 268.2537  0.98530578122477

Verfolge GORIZONT 5 in Echtzeit mit AllMySat

Download on the App Store